Regional Weather Roundup
Issued by NWS

Home | Current Version | Previous Version | Graphics & Text | Print | Product List | Glossary On
Versions: 1 2 3 4 5 6 7 8 9 10 11 12 13 14 15 16 17 18 19 20 21 22 23 24 25 26 27 28 29 30 31 32 33 34 35 36 37 38 39 40 41 42 43 44 45 46 47 48 49 50
000
ASUS43 KDTX 282110
RWRMI
MICHIGAN HOURLY REGIONAL WEATHER ROUNDUP
NATIONAL WEATHER SERVICE DETROIT/PONTIAC MI
400 PM EST FRI NOV 28 2014

NOTE: "FAIR" INDICATES FEW OR NO CLOUDS BELOW 12,000 FEET WITH NO
SIGNIFICANT WEATHER AND/OR OBSTRUCTION TO VISIBILITY.

MIZ047>049-052>055-059>063-066>070-074>076-081>083-282200-
SOUTHEAST LOWER MICHIGAN

CITY           SKY/WX    TMP DP  RH WIND       PRES   REMARKS
ADRIAN         CLOUDY    25  20  81 SW12      30.18F WCI  14
ALMA           LGT SNOW  24  22  91 S7        30.14S WCI  16
ANN ARBOR      CLOUDY    26  16  65 S10       30.17F WCI  16
BAD AXE        CLOUDY    25  15  66 S6        30.17F WCI  18
CARO           CLOUDY    25  16  68 S8        30.16S WCI  16
DETROIT CITY   CLOUDY    28  15  58 S10       30.20F WCI  19
DETROIT        FLURRIES  27  17  66 S10       30.20F WCI  17
FLINT          LGT SNOW  26  19  74 S7        30.17S WCI  18
GROSSE ILE     CLOUDY    28  18  64 S6        30.19F WCI  22
HILLSDALE      CLOUDY    26  21  80 S9        30.12F WCI  17
HOWELL         LGT SNOW  25  19  77 S7        30.14F WCI  17

CITY           SKY/WX    TMP DP  RH WIND       PRES   REMARKS
JACKSON        CLOUDY    25  18  74 S9        30.14F WCI  15
LAMBERTVILLE   LGT SNOW  28  23  80 CALM      30.20F VSB 3/4
LANSING        LGT SNOW  25  17  72 S9        30.13F WCI  15
LAPEER         CLOUDY    27  15  62 S7        30.16F WCI  19
MASON          CLOUDY    26  19  73 S8        30.14S WCI  18
MONROE         FLURRIES  27  19  74 S8        30.18F WCI  18
MT. CLEMENS    MOCLDY    27  17  65 S12       30.17F WCI  17
PONTIAC        LGT SNOW  24  17  74 S5        30.15F WCI  18
PORT HOPE        N/A     24  12  60 SW3       30.16F
PORT HURON     MOCLDY    27  14  59 S9        30.19F WCI  17
TRI CITIES     LGT SNOW  26  19  74 S8        30.16S WCI  18
TROY           FLURRIES  28  16  58 S8        30.20S WCI  20
SAGINAW HB     LGT SNOW  28  21  74 S9        30.16S WCI  20
$$
MIZ043>046-050>051-056>058-064>065-071>073-077>080-282200-
SOUTHWEST LOWER MICHIGAN

CITY           SKY/WX    TMP DP  RH WIND       PRES   REMARKS
BATTLE CREEK   CLOUDY    27  18  69 S10       30.10F WCI  17
BENTON HARBOR  CLOUDY    27  18  69 SE15      30.05F WCI  15
BIG RAPIDS     CLOUDY    24  21  88 S8        30.07F WCI  15
COLDWATER      CLOUDY    28  20  73 S10       30.12F WCI  18
FREMONT        CLOUDY    24  16  71 SE6       30.07F WCI  17
HOLLAND        CLOUDY    26  18  71 SE12      30.07F WCI  16
GRAND RAPIDS   FLURRIES  25  18  74 S12       30.10F WCI  14
IONIA          CLOUDY    26  19  77 S10       30.12S WCI  16
KALAMAZOO      CLOUDY    26  17  68 S9        30.10F WCI  17
LUDINGTON      CLOUDY    25  22  87 SE13      30.05F WCI  14
MARSHALL       CLOUDY    24  19  78 SE9       30.12F WCI  15
MOUNT PLEASANT LGT SNOW  25  21  84 S7        30.11F WCI  18
MUSKEGON       CLOUDY    25  17  72 SE14      30.07F WCI  13
SOUTH HAVEN    CLOUDY    28  18  68 SE8G16    30.05F WCI  19
$$
MIZ016>042-282200-
NORTHERN LOWER MICHIGAN

CITY           SKY/WX    TMP DP  RH WIND       PRES   REMARKS
ALPENA         CLOUDY    22  14  71 S8        30.14F WCI  12
BEAVER ISLAND  LGT SNOW  25  23  92 CALM      30.06F
BELLAIRE       LGT SNOW  24  20  84 SE3       30.10F
CADILLAC       CLOUDY    22  18  85 SE7       30.03F WCI  13
CHARLEVOIX     LGT SNOW  23  20  88 SE7       30.11F WCI  15
FRANKFORT      LGT SNOW  25  22  89 SE7       30.05F WCI  17
GAYLORD        LGT SNOW  20  15  81 S7        30.05F WCI  11
GRAYLING       LGT SNOW  21  18  86 SE6       30.08F WCI  14
HARBOR SPRINGS MOCLDY    23  16  75 S5        30.08F WCI  17
HOUGHTON LAKE  LGT SNOW  21  16  81 SE9       30.09F WCI  11
MANISTEE       MOCLDY    25  19  80 SE7       30.05F WCI  17
OSCODA         CLOUDY    24  14  66 S5        30.15F WCI  18
PELLSTON       CLOUDY    23  17  78 S6        30.09F WCI  16
ROGERS CITY    CLOUDY    23  17  78 S8        30.13S WCI  13
TRAVERSE CITY  FLURRIES  25  18  74 SE6       30.07F WCI  18
$$
MIZ007>008-015-282200-
EASTERN UPPER MICHIGAN

CITY           SKY/WX    TMP DP  RH WIND       PRES   REMARKS
KINROSS        CLOUDY    19  18  93 E7        30.09S WCI  10
MACKINAC ISLAN LGT SNOW  23  18  81 S3        30.08S
NEWBERRY       FLURRIES  18  13  81 SE3       30.06S
S. S. MARIE    CLOUDY    17  12  80 E5        30.13R WCI  10
MUNISING         N/A     21   9  59 S5        30.04F WCI  15
$$
MIZ004>006-011>014-085-282200-
CENTRAL UPPER MICHIGAN

CITY           SKY/WX    TMP DP  RH WIND       PRES   REMARKS
MANISTIQUE     FLURRIES  21  14  75 CALM      30.05F
ESCANABA       CLOUDY    18  12  79 CALM      30.03F
MENOMINEE      CLOUDY    19  18  93 SE3       30.00F
SAWYER-GWINN   CLOUDY    16  10  79 S7        29.98F WCI   6
$$
MIZ001>003-009>011-084-282200-
WESTERN UPPER MICHIGAN

CITY           SKY/WX    TMP DP  RH WIND       PRES   REMARKS
IRON MOUNTAIN  CLOUDY    13   8  81 E6        29.96F WCI   4
HOUGHTON       CLOUDY    16   4  59 SE3       29.96F
COPPER HARBOR    N/A     20  11  68 SW6       30.00F WCI  12
IRONWOOD       CLOUDY    18  12  79 S6        29.89F WCI   9
$$

ABBREVIATIONS USED IN REMARKS
   TC - TEMPERATURE IN CELSIUS
  WCI - WIND CHILL INDEX
   HX - HEAT INDEX
  VSB - VISIBILITY



USA.gov is the U.S. government's official web portal to all federal, state and local government web resources and services.